Location: Jennette
(35.1665°N, 90.4045°W)
Time: 06:36:38
(UTC+00:00)

Daily predictions for brighter satellites

Satellite Brightness Start Highest point End
(mag) Time Altitude Azimuth Time Altitude Azimuth Time Altitude Azimuth
CBERS-1 4.0 12:02:46 10° N 12:07:53 75° WNW 12:12:57 10° SSW
Cosmos 1025 Rocket 3.3 12:03:59 10° SSW 12:08:10 48° W 12:12:23 10° N
CORIOLIS 4.2 23:13:52 10° SSE 23:19:09 62° ENE 23:24:26 10° N
CBERS-1 4.4 23:14:23 10° S 23:19:27 72° WSW 23:24:34 10° NNW
Cosmos 407 Rocket 3.7 23:18:27 10° S 23:23:31 54° ESE 23:28:33 10° NNE
ISS -2.8 23:21:00 10° WSW 23:24:11 42° NW 23:27:24 10° NE
CZ-2D R/B 3.2 23:22:16 10° SE 23:25:13 38° ENE 23:28:10 10° N
SL-12 R/B(2) 4.2 23:18:09 10° SSW 23:25:40 79° ESE 23:34:40 10° NNE
Cosmos 1943 Rocket 2.3 23:22:26 10° S 23:27:54 55° ESE 23:33:21 10° NNE
Cosmos 2278 Rocket 2.4 23:22:49 10° S 23:28:17 52° ESE 23:33:45 10° NNE
OAO 3 Rocket 3.3 23:23:59 10° WSW 23:28:36 64° SSE 23:33:10 10° E
Cosmos 2082 Rocket 3.8 23:27:45 10° NNE 23:30:14 13° NE 23:32:43 10° E
Aureole 3 Rocket 3.3 23:27:46 10° SSE 23:30:26 24° E 23:32:58 10° NE
IRS-1C 4.2 23:25:26 10° SSE 23:30:38 60° ENE 23:35:53 10° N
Cosmos 1975 Rocket 3.2 23:30:06 10° N 23:34:20 51° E 23:38:35 10° SSE
ATLAS 5 CENTAUR R/B 2.3 23:32:04 10° NNW 23:36:34 42° ENE 23:42:02 10° SE
MOS 1 Rocket 3.7 23:35:15 10° SE 23:39:06 34° ENE 23:43:02 10° N
SAR-Lupe-1 3.9 23:35:51 10° SSE 23:39:23 72° ENE 23:42:56 10° N
COSMO-SKYMED 1 3.4 23:37:55 10° NE 23:41:24 26° E 23:44:52 10° SSE
USA 215 3.3 23:35:19 10° ESE 23:41:44 63° NE 23:48:11 10° NW
SKYMED 2 3.9 23:41:36 10° NNE 23:45:48 46° E 23:49:57 10° S
Helios 1A Rocket 3.4 23:43:17 10° NE 23:46:15 28° E 23:49:11 10° SSE
SAR-Lupe-4 4.1 23:48:01 10° S 23:51:33 61° W 23:55:06 10° NNW
RESURS DK-1 3.4 23:52:29 10° N 23:55:44 23° ENE 23:57:10 19° E
